Погода в Александровке

Украина / Кировоградская область     48°57′52″N   32°14′09″E
темп.,
°C
ветер,
м/с
пор.,
м/с
влажн.,
%
обл.,
%
осадки,
мм/ч
давл.,
гПа
погр.,
м
15 мая, сб
сб1500:00+13ююз412914 0.1 1009268
03:00+11ююз38945 0.1 1009168
06:00+11ююз38945 0.0 1010188
09:00+16юз57715 0.0 1011548
12:00+20юз565810 0.3 10111600
15:00+21юз5747100 0.6 10102315
18:00+17з2573100 0.2 1012177
21:00+16юз1171100 0.2 101211
16 мая, вс
вс1600:00+14з228081 0.0 101311
03:00+12з11851 0.0 101310
06:00+12св118343 0.0 101311
09:00+18в236599 0.0 1013424
12:00+21в4456100 0.0 10131159
15:00+23всв4445100 0.0 10111908
18:00+22всв465727 0.0 1010406
21:00+17св3564100 0.0 100972
17 мая, пн
пн1700:00+16св3779100 0.1 1008129
03:00+15ссз1294100 2.3 100738
06:00+14с5997100 0.4 1005245
09:00+18с6882100 0.4 1004402
12:00+21с337029 0.0 1003566
15:00+24св446177 0.0 10021400
18:00+21св2378100 1.7 1001210
21:00+17сз2394100 4.3 1002103
18 мая, вт
вт1800:00+15ссз0197100 0.1 100170
03:00+15з5798100 1.8 1001459
06:00+14юз5995100 2.9 1003380
09:00+17ююз578099 2.9 1004564
12:00+20ю8117078 2.6 10031195
15:00+21юз8106549 4.4 10031392
18:00+17з688167 1.8 1004740
21:00+13з4886100 1.8 1006315
19 мая, ср
ср1900:00+12з5108882 0.0 1006483
03:00+12з498499 0.0 1007466
06:00+11з499393 0.0 1008339
09:00+14з677597 0.0 1009745
12:00+17з7859100 0.2 10101686
15:00+17з675799 0.4 10111790
18:00+16зсз56655 0.3 10121193
21:00+12зсз33815 0.5 101328